• In Uzbekistan
  • List of Countries
  • For 7 days
  • Water Temperature
  • Satellite Maps
  • Weather Map
  • Weather Widgets
  • user-avatar
    Login

    Hourly Weather Barra

    Today, 23 April, Sunday

    Time Temperature Precipitation Wind Pressure Humidity
    00:00 +21°C° 0.1 mm 4 mps 751 mmHg 94%
    01:00 +21°C° 0.1 mm 4 mps 751 mmHg 94%
    02:00 +22°C° 0 mm 4 mps 750 mmHg 94%
    03:00 +22°C° 0 mm 4 mps 750 mmHg 93%
    04:00 +22°C° 0 mm 4 mps 750 mmHg 93%
    05:00 +22°C° 0.1 mm 4 mps 750 mmHg 93%
    06:00 +22°C° 0.1 mm 4 mps 750 mmHg 93%
    07:00 +22°C° 0.1 mm 4 mps 750 mmHg 93%
    08:00 +23°C° 0.1 mm 4 mps 751 mmHg 89%
    09:00 +25°C° 0.1 mm 4 mps 751 mmHg 85%
    10:00 +26°C° 0 mm 4 mps 751 mmHg 80%
    11:00 +27°C° 0.1 mm 4 mps 751 mmHg 75%
    12:00 +27°C° 0.1 mm 4 mps 750 mmHg 71%
    13:00 +28°C° 0.1 mm 4 mps 750 mmHg 67%
    14:00 +28°C° 0.1 mm 4 mps 750 mmHg 69%
    15:00 +27°C° 0.1 mm 4 mps 750 mmHg 71%
    16:00 +27°C° 0 mm 4 mps 749 mmHg 73%
    17:00 +26°C° 0 mm 4 mps 750 mmHg 79%
    18:00 +23°C° 0 mm 4 mps 750 mmHg 86%
    19:00 +22°C° 0 mm 4 mps 750 mmHg 92%
    20:00 +22°C° 0.1 mm 4 mps 751 mmHg 91%
    21:00 +22°C° 0.1 mm 4 mps 751 mmHg 91%
    22:00 +22°C° 0.1 mm 4 mps 751 mmHg 90%
    23:00 +22°C° 0.2 mm 4 mps 751 mmHg 90%

    Tomorrow, 24 April, Monday

    Time Temperature Precipitation Wind Pressure Humidity
    00:00 +23°C° 0.2 mm 4 mps 751 mmHg 89%
    01:00 +23°C° 0.2 mm 4 mps 751 mmHg 89%
    02:00 +22°C° 0.2 mm 4 mps 751 mmHg 90%
    03:00 +22°C° 0.2 mm 4 mps 750 mmHg 90%
    04:00 +22°C° 0.2 mm 4 mps 750 mmHg 91%
    05:00 +22°C° 0.1 mm 4 mps 750 mmHg 91%
    06:00 +22°C° 0.1 mm 4 mps 750 mmHg 91%
    07:00 +22°C° 0.1 mm 4 mps 750 mmHg 92%
    08:00 +23°C° 0.2 mm 4 mps 750 mmHg 90%
    09:00 +25°C° 0.2 mm 4 mps 751 mmHg 87%
    10:00 +25°C° 0.2 mm 4 mps 751 mmHg 85%
    11:00 +26°C° 0.2 mm 4 mps 750 mmHg 81%
    12:00 +27°C° 0.2 mm 4 mps 750 mmHg 78%
    13:00 +28°C° 0.2 mm 5 mps 749 mmHg 74%
    14:00 +28°C° 0.2 mm 4 mps 749 mmHg 74%
    15:00 +27°C° 0.2 mm 4 mps 749 mmHg 75%
    16:00 +27°C° 0.2 mm 4 mps 749 mmHg 76%
    17:00 +26°C° 0.1 mm 4 mps 749 mmHg 82%
    18:00 +23°C° 0.1 mm 4 mps 749 mmHg 88%
    19:00 +22°C° 0.1 mm 4 mps 750 mmHg 94%
    20:00 +22°C° 0.1 mm 4 mps 750 mmHg 94%
    21:00 +22°C° 0.1 mm 4 mps 750 mmHg 94%
    22:00 +22°C° 0.1 mm 4 mps 751 mmHg 93%
    23:00 +22°C° 0.1 mm 4 mps 750 mmHg 93%

    Day after tomorrow, 25 April, Tuesday

    Time Temperature Precipitation Wind Pressure Humidity
    00:00 +23°C° 0.1 mm 4 mps 750 mmHg 93%
    01:00 +23°C° 0.1 mm 4 mps 750 mmHg 92%
    02:00 +23°C° 0.2 mm 4 mps 749 mmHg 93%
    03:00 +22°C° 0.2 mm 4 mps 749 mmHg 94%
    04:00 +22°C° 0.2 mm 3 mps 749 mmHg 95%
    05:00 +22°C° 0.2 mm 4 mps 749 mmHg 95%
    06:00 +22°C° 0.2 mm 4 mps 749 mmHg 95%
    07:00 +22°C° 0.2 mm 4 mps 750 mmHg 96%
    08:00 +23°C° 0.2 mm 4 mps 750 mmHg 94%
    09:00 +25°C° 0.2 mm 4 mps 750 mmHg 92%
    10:00 +25°C° 0.2 mm 4 mps 751 mmHg 90%
    11:00 +26°C° 0.2 mm 4 mps 750 mmHg 85%
    12:00 +27°C° 0.2 mm 4 mps 750 mmHg 80%
    13:00 +28°C° 0.2 mm 5 mps 749 mmHg 75%
    14:00 +27°C° 0.1 mm 4 mps 749 mmHg 76%
    15:00 +27°C° 0.1 mm 4 mps 748 mmHg 76%
    16:00 +27°C° 0.1 mm 4 mps 748 mmHg 77%
    17:00 +26°C° 0 mm 4 mps 748 mmHg 82%
    18:00 +24°C° 0 mm 3 mps 749 mmHg 88%
    19:00 +22°C° 0 mm 3 mps 749 mmHg 93%
    20:00 +22°C° 0 mm 3 mps 750 mmHg 93%
    21:00 +22°C° 0 mm 3 mps 750 mmHg 92%
    22:00 +22°C° 0 mm 3 mps 750 mmHg 91%
    23:00 +23°C° 0 mm 2 mps 750 mmHg 91%

    26 April, Wednesday

    Time Temperature Precipitation Wind Pressure Humidity
    00:00 +23°C° 0 mm 2 mps 750 mmHg 91%
    01:00 +23°C° 0 mm 2 mps 749 mmHg 91%
    02:00 +23°C° 0 mm 2 mps 749 mmHg 93%
    03:00 +21°C° 0 mm 2 mps 749 mmHg 95%
    04:00 +21°C° 0 mm 2 mps 748 mmHg 97%
    05:00 +21°C° 0 mm 2 mps 749 mmHg 96%
    06:00 +21°C° 0 mm 2 mps 749 mmHg 95%
    07:00 +21°C° 0 mm 2 mps 749 mmHg 95%
    08:00 +24°C° 0 mm 2 mps 749 mmHg 87%
    09:00 +26°C° 0 mm 2 mps 750 mmHg 80%
    10:00 +28°C° 0 mm 2 mps 750 mmHg 73%
    11:00 +28°C° 0 mm 2 mps 749 mmHg 69%
    12:00 +29°C° 0 mm 2 mps 749 mmHg 65%
    13:00 +30°C° 0 mm 2 mps 748 mmHg 61%
    14:00 +29°C° 0 mm 2 mps 748 mmHg 63%
    15:00 +29°C° 0 mm 2 mps 747 mmHg 66%
    16:00 +28°C° 0 mm 3 mps 747 mmHg 68%
    17:00 +26°C° 0 mm 2 mps 747 mmHg 77%
    18:00 +24°C° 0 mm 2 mps 748 mmHg 86%
    19:00 +22°C° 0 mm 1 mps 748 mmHg 96%
    20:00 +21°C° 0 mm 1 mps 749 mmHg 96%
    21:00 +21°C° 0 mm 1 mps 749 mmHg 96%
    22:00 +20°C° 0 mm 1 mps 750 mmHg 96%
    23:00 +20°C° 0 mm 1 mps 749 mmHg 96%

    27 April, Thursday

    Time Temperature Precipitation Wind Pressure Humidity
    00:00 +20°C° 0 mm 1 mps 749 mmHg 96%
    01:00 +21°C° 0 mm 1 mps 748 mmHg 96%
    02:00 +21°C° 0 mm 1 mps 748 mmHg 96%
    03:00 +20°C° 0 mm 1 mps 748 mmHg 95%
    04:00 +20°C° 0 mm 1 mps 747 mmHg 94%
    05:00 +21°C° 0 mm 1 mps 748 mmHg 94%
    06:00 +21°C° 0 mm 1 mps 748 mmHg 93%
    07:00 +21°C° 0 mm 1 mps 749 mmHg 93%
    08:00 +24°C° 0 mm 1 mps 749 mmHg 83%
    09:00 +27°C° 0 mm 1 mps 749 mmHg 73%
    10:00 +29°C° 0 mm 1 mps 750 mmHg 63%
    11:00 +29°C° 0 mm 1 mps 749 mmHg 62%
    12:00 +30°C° 0 mm 2 mps 748 mmHg 61%
    13:00 +30°C° 0 mm 2 mps 748 mmHg 60%
    14:00 +30°C° 0 mm 2 mps 747 mmHg 61%
    15:00 +29°C° 0 mm 2 mps 747 mmHg 62%
    16:00 +29°C° 0 mm 2 mps 747 mmHg 62%
    17:00 +27°C° 0 mm 2 mps 747 mmHg 73%
    18:00 +24°C° 0 mm 2 mps 748 mmHg 83%
    19:00 +22°C° 0 mm 1 mps 748 mmHg 94%
    20:00 +21°C° 0 mm 1 mps 748 mmHg 94%
    21:00 +21°C° 0 mm 1 mps 749 mmHg 94%
    22:00 +21°C° 0 mm 1 mps 749 mmHg 94%
    23:00 +21°C° 0 mm 1 mps 749 mmHg 93%

    28 April, Friday

    Time Temperature Precipitation Wind Pressure Humidity
    00:00 +21°C° 0 mm 1 mps 749 mmHg 92%
    01:00 +18°C° 0 mm 0 mps 748 mmHg 92%
    02:00 +21°C° 0 mm 1 mps 748 mmHg 90%
    03:00 +21°C° 0 mm 1 mps 748 mmHg 88%
    04:00 +21°C° 0 mm 2 mps 748 mmHg 86%
    05:00 +21°C° 0 mm 2 mps 749 mmHg 80%
    06:00 +21°C° 0 mm 2 mps 749 mmHg 75%
    07:00 +20°C° 0 mm 2 mps 750 mmHg 69%
    08:00 +23°C° 0.1 mm 2 mps 750 mmHg 67%
    09:00 +25°C° 0.1 mm 3 mps 751 mmHg 65%
    10:00 +26°C° 0.1 mm 3 mps 751 mmHg 62%
    11:00 +27°C° 0.1 mm 3 mps 750 mmHg 63%
    12:00 +27°C° 0.1 mm 4 mps 750 mmHg 64%
    13:00 +28°C° 0.1 mm 4 mps 749 mmHg 64%
    14:00 +27°C° 0.1 mm 4 mps 749 mmHg 69%
    15:00 +27°C° 0.1 mm 5 mps 749 mmHg 74%
    16:00 +26°C° 0.1 mm 5 mps 748 mmHg 78%
    17:00 +25°C° 0.1 mm 4 mps 749 mmHg 83%
    18:00 +23°C° 0.1 mm 4 mps 749 mmHg 87%
    19:00 +22°C° 0.1 mm 4 mps 750 mmHg 92%
    20:00 +22°C° 0.2 mm 3 mps 750 mmHg 92%
    21:00 +22°C° 0.2 mm 3 mps 750 mmHg 93%
    22:00 +22°C° 0.2 mm 3 mps 751 mmHg 94%
    23:00 +22°C° 0.2 mm 3 mps 750 mmHg 94%
    Show more